EW6141 Weather Reports


time (UTC)temp
F
wind
direction
speed
knots
gust
knots
rain 1hr
in
rain 24hr
in
rain mn
in
humidity
%
barometer
mb
20220124104718 50 329 0.9 2.6 0.01 0.13 0.06 92 1013.0
20220124104214 50 277 0.0 2.6 0.01 0.13 0.06 92 1013.0
20220124103706 50 304 0.0 2.6 0.01 0.13 0.06 92 1013.1
20220124103200 50 317 0.9 3.5 0.02 0.13 0.06 92 1013.1
20220124102653 50 339 0.9 3.5 0.02 0.13 0.06 92 1013.1
20220124102147 50 319 0.0 2.6 0.02 0.13 0.06 92 1013.1
20220124101642 50 303 0.0 2.6 0.03 0.13 0.06 92 1013.1
20220124101136 51 299 0.0 2.6 0.03 0.13 0.06 92 1013.2
20220124100629 51 281 0.0 1.7 0.03 0.13 0.06 92 1013.2
20220124100124 51 281 0.0 3.5 0.03 0.13 0.06 92 1013.1
20220124095618 51 281 0.9 3.5 0.02 0.12 0.05 92 1013.2
20220124095112 51 311 0.0 1.7 0.02 0.12 0.05 92 1013.3
20220124094607 51 275 0.0 0.9 0.02 0.12 0.05 92 1013.4
20220124094100 51 275 0.0 0.9 0.02 0.12 0.05 92 1013.5
20220124093553 51 275 0.0 3.5 0.02 0.12 0.05 92 1013.6
20220124093047 51 275 0.9 3.5 0.01 0.11 0.04 92 1013.5
20220124092542 51 263 0.9 3.5 0.02 0.11 0.04 92 1013.7
20220124092036 51 268 0.9 3.5 0.02 0.11 0.04 92 1013.8
20220124091533 51 275 0.9 3.5 0.01 0.10 0.03 92 1013.7
20220124091027 51 261 0.9 2.6 0.01 0.10 0.03 92 1013.8
20220124090519 51 260 0.9 2.6 0.01 0.10 0.03 92 1013.9
20220124090023 51 286 0.9 2.6 0.02 0.10 0.03 92 1013.8
20220124085516 51 277 0.9 3.5 0.02 0.10 0.03 92 1014.0
20220124085010 50 274 1.7 6.1 0.02 0.10 0.03 92 1014.0
20220124084453 50 246 0.9 6.1 0.02 0.10 0.03 92 1014.1
20220124083947 51 300 0.9 3.5 0.02 0.10 0.03 92 1014.1
20220124083443 51 286 0.9 3.5 0.02 0.10 0.03 92 1014.0
20220124082937 51 267 0.9 3.5 0.02 0.10 0.03 92 1014.0
20220124082430 51 266 0.9 3.5 0.01 0.09 0.02 92 1014.0
20220124081923 51 272 0.9 3.5 0.01 0.09 0.02 92 1014.2
20220124081418 51 251 0.9 3.5 0.01 0.09 0.02 92 1014.1
20220124080922 51 298 0.9 3.5 0.01 0.09 0.02 92 1014.2
20220124080415 51 273 0.9 3.5 0.01 0.09 0.02 92 1014.3
20220124075910 51 255 0.9 5.2 0.00 0.08 0.01 92 1014.5
20220124075404 51 264 0.9 5.2 0.00 0.08 0.01 92 1014.5
20220124074857 51 268 0.9 3.5 0.00 0.08 0.01 92 1014.6
20220124074351 51 305 0.0 1.7 0.00 0.08 0.01 92 1014.5
20220124073846 51 305 0.0 1.7 0.00 0.08 0.01 92 1014.5
20220124073340 51 305 0.0 1.7 0.00 0.08 0.01 92 1014.7
20220124072833 51 305 0.0 1.7 0.00 0.08 0.01 92 1014.7
20220124072332 51 305 0.0 1.7 0.00 0.08 0.01 92 1014.7
20220124071831 51 305 0.0 1.7 0.00 0.08 0.01 92 1014.9
20220124071331 51 305 0.0 1.7 0.00 0.08 0.01 92 1015.0
20220124070822 51 305 0.0 1.7 0.00 0.09 0.01 92 1014.9
20220124070324 51 309 0.0 0.9 0.01 0.09 0.01 92 1015.0
20220124065829 51 309 0.0 0.9 0.01 0.09 0.01 92 1015.0
20220124065321 51 309 0.0 0.9 0.01 0.09 0.01 92 1015.1
20220124064832 51 309 0.0 0.9 0.01 0.09 0.01 92 1015.2
20220124064323 51 319 0.0 0.9 0.01 0.09 0.01 92 1015.2
20220124063817 51 319 0.0 0.0 0.01 0.09 0.01 92 1015.3
20220124063321 51 319 0.0 0.0 0.01 0.09 0.01 92 1015.4
20220124062817 51 319 0.0 0.0 0.01 0.09 0.01 92 1015.4
20220124062318 51 319 0.0 0.0 0.01 0.10 0.01 92 1015.5
20220124061818 51 319 0.0 0.0 0.01 0.10 0.01 92 1015.6
20220124061319 51 319 0.0 0.9 0.01 0.10 0.01 92 1015.7
20220124060818 51 319 0.0 0.9 0.01 0.10 0.01 92 1015.8
20220124060317 51 319 0.0 0.9 0.00 0.09 0.00 92 1015.8
20220124055818 51 319 0.0 0.0 0.00 0.09 0.09 92 1015.8
20220124055317 51 319 0.0 0.0 0.01 0.09 0.09 92 1015.8
20220124054819 51 319 0.0 0.0 0.01 0.09 0.09 92 1015.7
20220124054318 51 319 0.0 0.9 0.01 0.09 0.09 92 1015.9
20220124053818 51 319 0.0 0.9 0.01 0.09 0.09 92 1016.2
20220124053320 51 319 0.0 0.9 0.01 0.09 0.09 92 1016.2
20220124052821 52 319 0.0 0.9 0.01 0.10 0.09 92 1016.5
20220124052319 52 319 0.0 0.9 0.01 0.10 0.09 92 1016.5
20220124051818 52 319 0.0 0.9 0.01 0.10 0.09 92 1016.6
20220124051318 52 319 0.0 0.9 0.01 0.10 0.09 92 1016.5
20220124050817 52 319 0.0 0.9 0.01 0.10 0.09 92 1016.7
20220124050318 52 319 0.0 0.0 0.01 0.10 0.09 92 1016.7
20220124045815 52 319 0.0 0.0 0.01 0.10 0.09 92 1016.8
20220124045317 52 319 0.0 0.0 0.00 0.09 0.08 92 1016.8
20220124044815 52 319 0.0 0.0 0.00 0.09 0.08 92 1016.9
20220124044313 52 319 0.0 0.9 0.00 0.10 0.08 92 1016.9
20220124043812 52 319 0.0 0.9 0.00 0.10 0.08 92 1017.0
20220124043310 52 319 0.0 0.9 0.00 0.10 0.08 92 1017.1
20220124042810 52 319 0.0 0.9 0.00 0.10 0.08 92 1017.1
20220124042310 52 319 0.0 2.6 0.00 0.10 0.08 92 1017.1
20220124041807 52 319 0.0 2.6 0.00 0.10 0.08 92 1017.3
20220124041309 52 319 0.0 2.6 0.01 0.10 0.08 92 1017.4
20220124040807 52 319 0.0 2.6 0.01 0.11 0.08 92 1017.3
20220124040307 52 340 0.0 0.9 0.01 0.11 0.08 92 1017.4
20220124035807 52 355 0.0 0.9 0.01 0.11 0.08 92 1017.6
20220124035305 52 279 0.0 0.9 0.02 0.12 0.08 92 1017.5
20220124034755 53 279 0.0 0.9 0.02 0.12 0.08 92 1017.6
20220124034250 53 279 0.0 0.9 0.02 0.12 0.08 92 1017.6
20220124033746 53 279 0.0 1.7 0.02 0.12 0.08 92 1017.8
20220124033237 53 279 0.0 1.7 0.02 0.12 0.08 92 1017.7
20220124032733 53 279 0.0 1.7 0.02 0.12 0.08 92 1017.9
20220124032224 53 279 0.0 0.9 0.02 0.12 0.08 92 1018.0
20220124031718 53 280 0.0 1.7 0.03 0.13 0.08 92 1018.0
20220124031215 53 280 0.0 1.7 0.02 0.12 0.07 92 1018.2
20220124030708 53 281 0.0 0.9 0.02 0.12 0.07 92 1018.2
20220124030202 53 280 0.0 1.7 0.02 0.12 0.07 92 1018.1
20220124025655 53 280 0.0 1.7 0.02 0.12 0.07 92 1018.0
20220124025149 53 293 0.0 0.9 0.01 0.12 0.06 91 1018.1
20220124024644 53 293 0.0 0.0 0.01 0.12 0.06 91 1018.1
20220124024136 53 293 0.0 0.9 0.01 0.12 0.06 91 1018.2
20220124023631 53 293 0.0 0.9 0.01 0.12 0.06 91 1018.2
20220124023126 53 293 0.0 1.7 0.02 0.12 0.06 91 1018.2
20220124022621 53 293 0.0 1.7 0.02 0.12 0.06 91 1018.2
20220124022114 53 325 0.0 0.9 0.01 0.11 0.06 91 1018.0
20220124021607 53 325 0.0 0.9 0.01 0.11 0.05 91 1017.9
20220124021102 53 325 0.0 0.9 0.01 0.11 0.05 91 1017.9
20220124020601 53 325 0.0 0.9 0.01 0.11 0.05 91 1017.8
20220124020050 53 325 0.0 0.9 0.01 0.12 0.05 91 1018.0
20220124015543 53 325 0.0 0.9 0.01 0.12 0.05 91 1017.9
20220124015038 53 325 0.0 0.9 0.01 0.12 0.05 91 1017.9
20220124014530 53 325 0.0 0.9 0.01 0.12 0.05 91 1017.8
20220124014024 54 325 0.0 0.9 0.02 0.13 0.05 91 1017.6
20220124013519 54 325 0.0 0.9 0.02 0.13 0.05 91 1017.8
20220124013015 54 325 0.0 0.9 0.01 0.12 0.04 91 1017.8
20220124012507 53 325 0.0 0.9 0.01 0.12 0.04 91 1017.7
20220124012002 53 325 0.0 0.9 0.01 0.12 0.04 91 1017.6
20220124011455 53 325 0.0 0.9 0.01 0.12 0.04 91 1017.8
20220124010949 53 325 0.0 0.9 0.02 0.12 0.04 90 1017.9
20220124010443 53 325 0.0 0.0 0.02 0.12 0.04 90 1017.7
20220124005938 54 325 0.0 0.0 0.02 0.12 0.04 90 1017.7
20220124005431 54 325 0.0 0.0 0.02 0.13 0.04 90 1017.8
20220124004926 54 325 0.0 0.9 0.02 0.13 0.04 90 1017.9
20220124004421 54 325 0.0 0.9 0.01 0.12 0.03 90 1017.9
20220124003912 54 325 0.0 0.9 0.01 0.12 0.03 90 1017.9
20220124003408 54 325 0.0 0.0 0.01 0.12 0.03 90 1018.0
20220124002900 54 325 0.0 0.9 0.01 0.12 0.03 90 1018.1
20220124002356 54 325 0.0 0.9 0.01 0.12 0.03 90 1018.0
20220124001848 54 325 0.0 0.9 0.01 0.12 0.03 90 1018.1
20220124001343 54 325 0.0 0.9 0.01 0.12 0.03 90 1018.1
20220124000837 54 325 0.0 0.0 0.00 0.12 0.02 90 1017.9
20220124000332 54 325 0.0 0.0 0.00 0.12 0.02 90 1017.9
20220123235825 54 325 0.0 0.0 0.00 0.12 0.02 90 1017.9
20220123235319 54 325 0.0 0.0 0.00 0.12 0.02 90 1018.0
20220123234814 54 325 0.0 0.0 0.00 0.12 0.02 90 1018.0
20220123234308 54 325 0.0 0.0 0.00 0.12 0.02 90 1018.2
20220123233801 54 325 0.0 0.0 0.00 0.12 0.02 90 1018.2
20220123233255 54 325 0.0 0.0 0.00 0.12 0.02 90 1018.0
20220123232750 54 325 0.0 0.0 0.00 0.12 0.02 90 1018.1
20220123232245 54 325 0.0 0.9 0.00 0.12 0.02 90 1018.1
20220123231737 54 325 0.0 0.9 0.00 0.12 0.02 90 1018.2
20220123231231 54 325 0.0 0.9 0.00 0.12 0.02 90 1018.2
20220123230727 54 325 0.0 0.9 0.00 0.12 0.02 90 1018.4
20220123230218 54 325 0.0 0.9 0.00 0.12 0.02 90 1018.4
20220123225717 54 325 0.0 0.9 0.00 0.12 0.02 90 1018.4
20220123225212 53 325 0.0 0.9 0.00 0.12 0.02 90 1018.5
20220123224701 53 325 0.0 0.9 0.00 0.12 0.02 90 1018.6
20220123224155 53 325 0.0 0.9 0.00 0.12 0.02 90 1018.5
20220123223649 53 325 0.0 1.7 0.00 0.12 0.02 90 1018.6
20220123223144 53 325 0.0 1.7 0.00 0.12 0.02 90 1018.5
20220123222636 53 325 0.0 1.7 0.00 0.12 0.02 90 1018.6
20220123222135 53 318 0.0 0.9 0.00 0.12 0.02 90 1018.6
20220123221634 53 318 0.0 1.7 0.00 0.12 0.02 90 1018.7
20220123221134 53 318 0.0 1.7 0.00 0.12 0.02 90 1018.8
20220123220639 53 298 0.0 1.7 0.00 0.12 0.02 90 1018.8
20220123220133 53 298 0.0 1.7 0.00 0.12 0.02 90 1018.9
20220123215631 53 298 0.0 0.9 0.00 0.12 0.02 90 1019.0
20220123215132 53 298 0.0 1.7 0.00 0.12 0.02 90 1019.0
20220123214631 53 298 0.0 2.6 0.00 0.12 0.02 90 1019.1
20220123214131 53 298 0.0 2.6 0.00 0.12 0.02 90 1019.2
20220123213630 53 299 0.0 0.9 0.00 0.12 0.02 90 1019.1
20220123213130 53 294 0.0 1.7 0.00 0.12 0.02 90 1019.2
20220123212631 53 294 0.0 2.6 0.00 0.12 0.02 90 1019.2
20220123212133 53 338 0.9 2.6 0.00 0.12 0.02 89 1019.3
20220123211631 53 274 0.9 3.5 0.00 0.12 0.02 89 1019.5
20220123211127 53 320 0.0 3.5 0.00 0.12 0.02 89 1019.7
20220123210627 53 337 0.9 2.6 0.00 0.12 0.02 89 1019.8
20220123210128 53 316 0.9 2.6 0.00 0.12 0.02 89 1019.8
20220123205627 53 294 0.0 0.9 0.00 0.12 0.02 89 1019.8
20220123205128 53 294 0.0 2.6 0.00 0.12 0.02 89 1019.9
20220123204627 53 342 0.9 3.5 0.00 0.12 0.02 88 1019.9
20220123204126 53 323 0.9 3.5 0.00 0.13 0.02 88 1020.0
20220123203627 53 284 0.9 2.6 0.00 0.13 0.02 88 1020.0
20220123203127 53 317 0.9 3.5 0.00 0.13 0.02 88 1020.0
20220123202626 53 282 0.9 6.1 0.00 0.13 0.02 88 1019.9
20220123202126 53 342 0.9 6.1 0.00 0.13 0.02 87 1020.1
20220123201627 53 346 0.9 4.3 0.00 0.13 0.02 87 1020.4
20220123201129 53 331 0.9 4.3 0.00 0.13 0.02 87 1020.4
20220123200628 53 292 0.9 3.5 0.00 0.13 0.02 87 1020.4
20220123200127 53 316 0.9 5.2 0.00 0.13 0.02 87 1020.4
20220123195627 52 318 1.7 5.2 0.00 0.14 0.02 87 1020.5
20220123195126 52 309 0.9 4.3 0.00 0.14 0.02 87 1020.5
20220123194626 52 306 0.9 4.3 0.00 0.14 0.02 87 1020.7
20220123194127 52 346 0.9 4.3 0.00 0.14 0.02 87 1020.9
20220123193626 52 338 0.9 4.3 0.00 0.14 0.02 87 1021.0
20220123193126 52 306 1.7 4.3 0.00 0.14 0.02 87 1021.1
20220123192627 52 319 0.9 4.3 0.00 0.14 0.02 87 1021.2
20220123192127 52 329 0.9 4.3 0.00 0.14 0.02 87 1021.2
20220123191627 52 288 0.9 4.3 0.00 0.14 0.02 87 1021.4
20220123191126 51 314 0.9 4.3 0.00 0.14 0.02 87 1021.4
20220123190624 51 313 0.9 4.3 0.00 0.15 0.02 87 1021.6
20220123190126 51 304 0.9 4.3 0.00 0.15 0.02 87 1021.8
20220123185618 51 327 0.9 4.3 0.00 0.15 0.02 87 1021.8
20220123185113 51 317 0.9 4.3 0.00 0.15 0.02 87 1021.9
20220123184605 51 331 0.9 4.3 0.00 0.15 0.02 87 1022.1
20220123184100 51 331 0.9 4.3 0.00 0.15 0.02 86 1022.1
20220123183553 51 321 0.9 4.3 0.00 0.15 0.02 86 1022.4
20220123183048 51 346 0.9 3.5 0.00 0.15 0.02 86 1022.5
20220123182549 51 348 0.9 4.3 0.00 0.15 0.02 86 1022.8
20220123182035 51 315 0.9 4.3 0.00 0.15 0.02 86 1022.9
20220123181529 51 279 0.9 3.5 0.00 0.15 0.02 86 1023.1
20220123181024 51 308 0.9 3.5 0.00 0.15 0.02 85 1023.2
20220123180518 51 304 0.9 4.3 0.00 0.15 0.02 85 1023.2
20220123180011 51 332 0.9 4.3 0.00 0.15 0.02 86 1023.2
20220123175506 51 312 0.9 7.0 0.00 0.15 0.02 85 1023.4
20220123175001 51 340 0.9 7.0 0.00 0.15 0.02 85 1023.5
20220123174453 51 355 1.7 5.2 0.00 0.15 0.02 85 1023.6
20220123173947 51 327 1.7 5.2 0.00 0.16 0.02 85 1023.7
20220123173446 51 325 1.7 4.3 0.00 0.16 0.02 85 1023.8
20220123172932 51 325 1.7 7.0 0.00 0.16 0.02 85 1023.9
20220123172426 51 18 1.7 7.0 0.00 0.16 0.02 84 1023.9
20220123171919 51 339 0.9 7.0 0.00 0.16 0.02 84 1023.8
20220123171414 51 327 0.9 3.5 0.00 0.16 0.02 85 1023.9
20220123170908 50 355 0.9 2.6 0.00 0.16 0.02 85 1024.0
20220123170402 50 348 0.0 2.6 0.00 0.16 0.02 84 1024.0
20220123165857 50 311 0.9 2.6 0.00 0.16 0.02 84 1024.1
20220123165350 50 331 0.9 2.6 0.00 0.16 0.02 84 1024.2
20220123164845 50 308 0.9 4.3 0.00 0.16 0.02 84 1024.4
20220123164338 50 321 0.9 5.2 0.00 0.16 0.02 84 1024.4
20220123163832 50 346 0.9 5.2 0.00 0.16 0.02 84 1024.5
20220123163327 50 319 0.9 3.5 0.00 0.16 0.02 83 1024.6
20220123162821 50 316 0.9 3.5 0.00 0.16 0.02 83 1024.5
20220123162317 50 348 0.9 3.5 0.00 0.16 0.02 82 1024.5
20220123161808 50 317 0.9 3.5 0.00 0.16 0.02 82 1024.4
20220123161303 50 344 0.9 4.3 0.00 0.16 0.02 81 1024.3
20220123160756 50 343 0.9 4.3 0.00 0.16 0.02 80 1024.3
20220123160252 50 309 0.9 4.3 0.00 0.16 0.02 81 1024.2
20220123155743 50 336 0.9 4.3 0.00 0.16 0.02 81 1024.2
20220123155238 51 340 0.9 4.3 0.00 0.16 0.02 80 1024.3
20220123154732 51 111 0.9 4.3 0.00 0.16 0.02 79 1024.1
20220123154225 51 305 0.9 4.3 0.00 0.16 0.02 77 1024.0
20220123153719 51 334 0.0 3.5 0.00 0.16 0.02 76 1024.0
20220123153213 51 323 0.0 3.5 0.00 0.16 0.02 75 1024.0
20220123152708 51 307 0.9 5.2 0.00 0.16 0.02 73 1024.0
20220123152201 51 311 0.9 5.2 0.00 0.16 0.02 72 1024.0
20220123151656 51 355 0.0 3.5 0.00 0.16 0.02 71 1023.9
20220123151149 51 315 0.9 4.3 0.00 0.16 0.02 72 1023.9
20220123150646 51 313 0.9 4.3 0.00 0.16 0.02 71 1023.9
20220123150138 51 338 0.9 3.5 0.00 0.16 0.02 72 1023.9
20220123145633 51 337 0.9 7.0 0.00 0.16 0.02 71 1023.9
20220123145125 51 322 0.9 7.0 0.00 0.16 0.02 71 1023.9
20220123144620 51 319 0.0 4.3 0.00 0.16 0.02 72 1023.9
20220123144114 51 306 0.9 2.6 0.00 0.16 0.02 72 1023.8
20220123143608 51 299 0.0 2.6 0.00 0.16 0.02 71 1023.8
20220123143102 51 293 0.0 1.7 0.00 0.16 0.02 73 1023.9
20220123142556 51 318 0.0 1.7 0.00 0.16 0.02 73 1023.8
20220123142049 51 318 0.0 1.7 0.00 0.16 0.02 74 1023.7
20220123141544 51 309 0.0 1.7 0.00 0.16 0.02 74 1023.6
20220123141039 51 333 0.0 5.2 0.00 0.16 0.02 74 1023.4
20220123140537 50 91 0.0 5.2 0.00 0.16 0.02 74 1023.4
20220123140029 50 333 0.0 4.3 0.00 0.16 0.02 76 1023.4
20220123135520 50 333 0.0 4.3 0.00 0.16 0.02 76 1023.4
20220123135017 50 344 0.0 3.5 0.00 0.16 0.02 76 1023.4
20220123134507 50 332 0.0 2.6 0.00 0.16 0.02 76 1023.3
20220123134002 50 338 0.0 2.6 0.00 0.16 0.02 76 1023.3
20220123133456 50 333 0.9 5.2 0.00 0.16 0.02 77 1023.2
20220123132951 50 309 0.0 5.2 0.00 0.16 0.02 75 1023.3
20220123132443 50 327 0.9 7.0 0.00 0.16 0.02 76 1023.3
20220123131937 50 333 0.9 7.0 0.00 0.16 0.02 75 1023.4
20220123131432 49 290 0.9 3.5 0.00 0.16 0.02 76 1023.4
20220123130926 49 266 0.0 3.5 0.00 0.16 0.02 76 1023.3
20220123130419 49 312 0.0 1.7 0.00 0.16 0.02 78 1023.3
20220123125916 49 312 0.0 1.7 0.00 0.16 0.02 77 1023.2
20220123125407 49 320 0.0 0.9 0.00 0.16 0.02 78 1023.2
20220123124901 49 320 0.0 1.7 0.00 0.16 0.02 79 1023.2
20220123124355 49 320 0.0 1.7 0.00 0.16 0.02 80 1023.1
20220123123850 49 340 0.0 1.7 0.00 0.16 0.02 80 1023.0
20220123123346 49 304 0.0 1.7 0.00 0.16 0.02 81 1023.0
20220123122837 49 304 0.0 1.7 0.00 0.16 0.02 81 1023.0
20220123122331 49 304 0.0 1.7 0.00 0.16 0.02 82 1022.9
20220123121825 48 304 0.0 2.6 0.00 0.16 0.02 82 1022.8
20220123121320 48 321 0.0 2.6 0.00 0.16 0.02 83 1022.8
20220123120813 48 316 0.0 0.9 0.00 0.16 0.02 84 1022.8
20220123120308 48 309 0.0 0.9 0.00 0.16 0.02 85 1022.8
20220123115801 48 309 0.0 0.9 0.00 0.16 0.02 86 1022.8
20220123115255 48 309 0.0 0.9 0.00 0.16 0.02 87 1022.8
20220123114750 48 309 0.0 0.9 0.00 0.16 0.02 88 1022.7
20220123114243 48 309 0.0 0.9 0.00 0.16 0.02 88 1022.7
20220123113738 48 309 0.0 0.9 0.00 0.16 0.02 88 1022.7
20220123113233 48 309 0.0 1.7 0.00 0.16 0.02 89 1022.7
20220123112725 48 309 0.0 1.7 0.00 0.16 0.02 88 1022.9
20220123112221 48 309 0.0 0.9 0.00 0.16 0.02 89 1022.9
20220123111716 48 309 0.0 0.9 0.00 0.16 0.02 89 1023.0
20220123111220 48 309 0.0 0.9 0.00 0.16 0.02 89 1023.0
20220123110701 48 309 0.0 0.9 0.00 0.16 0.02 89 1022.8
20220123110201 48 309 0.0 0.9 0.00 0.16 0.02 90 1022.8
20220123105650 48 309 0.0 0.9 0.00 0.16 0.02 90 1022.7
20220123105145 48 309 0.0 0.9 0.00 0.16 0.02 90 1022.6